�������l�o���
Date,Time,MP-1(��Sv/h),MP-2(��Sv/h),MP-3(��Sv/h),MP-4(��Sv/h),MP-5(��Sv/h),MP-6(��Sv/h),MP-7(��Sv/h),MP-8(��Sv/h),����,����(m/s),���J
2022/08/28,00:00,0.596,0.843,0.534,1.028,0.736,0.341,0.597,0.555,�k,6.2,��
2022/08/28,00:10,0.598,0.842,0.533,1.029,0.735,0.341,0.596,0.557,�k,5.4,��
2022/08/28,00:20,0.598,0.844,0.533,1.029,0.736,0.339,0.596,0.556,�k�k��,4.2,��
2022/08/28,00:30,0.597,0.843,0.531,1.029,0.736,0.340,0.597,0.558,�k�k��,3.8,�L
2022/08/28,00:40,0.598,0.843,0.534,1.032,0.735,0.340,0.597,0.557,�k�k��,3.1,�L
2022/08/28,00:50,0.599,0.843,0.533,1.027,0.735,0.341,0.596,0.557,�k�k��,4.4,�L
2022/08/28,01:00,0.597,0.843,0.537,1.029,0.736,0.340,0.596,0.558,�k�k��,4.9,�L
2022/08/28,01:10,0.599,0.843,0.535,1.030,0.737,0.342,0.596,0.557,�k�k��,5.5,��
2022/08/28,01:20,0.598,0.843,0.533,1.030,0.735,0.340,0.596,0.558,�k�k��,6.0,��
2022/08/28,01:30,0.599,0.844,0.535,1.030,0.737,0.340,0.597,0.557,�k�k��,6.1,��
2022/08/28,01:40,0.598,0.844,0.534,1.029,0.735,0.341,0.596,0.556,�k�k��,5.9,��
2022/08/28,01:50,0.597,0.843,0.534,1.031,0.736,0.341,0.594,0.556,�k,5.7,��
2022/08/28,02:00,0.599,0.843,0.533,1.030,0.734,0.341,0.596,0.556,�k,6.6,�L
2022/08/28,02:10,0.599,0.842,0.534,1.031,0.736,0.340,0.597,0.557,�k,6.0,�L
2022/08/28,02:20,0.598,0.843,0.533,1.031,0.737,0.340,0.596,0.557,�k,7.6,�L
2022/08/28,02:30,0.597,0.844,0.534,1.032,0.734,0.340,0.595,0.556,�k,8.3,�L
2022/08/28,02:40,0.596,0.842,0.533,1.030,0.735,0.338,0.595,0.556,�k,10.2,��
2022/08/28,02:50,0.596,0.844,0.532,1.030,0.736,0.340,0.594,0.556,�k,11.3,��
2022/08/28,03:00,0.596,0.844,0.533,1.030,0.735,0.341,0.595,0.555,�k,8.8,��
2022/08/28,03:10,0.596,0.844,0.532,1.030,0.736,0.339,0.593,0.554,�k,7.6,��
2022/08/28,03:20,0.596,0.842,0.532,1.032,0.736,0.338,0.594,0.556,�k,7.1,�L
2022/08/28,03:30,0.595,0.841,0.531,1.029,0.736,0.339,0.593,0.554,�k,8.2,�L
2022/08/28,03:40,0.596,0.845,0.533,1.032,0.734,0.339,0.593,0.554,�k,6.8,�L
2022/08/28,03:50,0.596,0.842,0.534,1.032,0.736,0.339,0.592,0.555,�k,7.5,�L
2022/08/28,04:00,0.595,0.842,0.532,1.031,0.735,0.340,0.592,0.554,�k�k��,8.1,�L
2022/08/28,04:10,0.597,0.845,0.534,1.034,0.735,0.341,0.593,0.555,�k�k��,6.3,�L
2022/08/28,04:20,0.596,0.840,0.534,1.034,0.736,0.341,0.592,0.557,�k�k��,6.1,�L
2022/08/28,04:30,0.596,0.837,0.531,1.031,0.731,0.341,0.590,0.554,�k�k��,8.3,�L
2022/08/28,04:40,0.592,0.828,0.530,1.020,0.725,0.342,0.589,0.555,�k,8.2,�L
2022/08/28,04:50,0.594,0.828,0.531,1.017,0.725,0.344,0.590,0.553,�k,4.7,�L
2022/08/28,05:00,0.591,0.825,0.529,1.013,0.722,0.344,0.589,0.553,�k�k��,5.5,�L
2022/08/28,05:10,0.596,0.824,0.532,1.012,0.722,0.345,0.587,0.550,�k,5.1,�L
2022/08/28,05:20,0.595,0.826,0.533,1.010,0.723,0.347,0.585,0.550,�k,7.8,�L
2022/08/28,05:30,0.596,0.827,0.534,1.008,0.720,0.348,0.586,0.551,�k,7.1,�L
2022/08/28,05:40,0.598,0.821,0.533,1.002,0.718,0.348,0.583,0.550,�k,9.1,�L
2022/08/28,05:50,0.597,0.824,0.535,1.005,0.722,0.350,0.586,0.551,�k,8.8,�L
2022/08/28,06:00,0.600,0.827,0.536,1.003,0.722,0.350,0.585,0.553,�k,9.2,�L
2022/08/28,06:10,0.601,0.827,0.535,1.004,0.721,0.351,0.588,0.550,�k�k��,8.1,�L
2022/08/28,06:20,0.599,0.824,0.535,1.000,0.716,0.350,0.583,0.549,�k,8.3,�L
2022/08/28,06:30,0.599,0.824,0.537,1.000,0.718,0.352,0.584,0.550,�k�k��,4.4,�L
2022/08/28,06:40,0.598,0.825,0.537,1.002,0.721,0.354,0.584,0.548,�k,8.3,�L
2022/08/28,06:50,0.600,0.825,0.536,1.000,0.720,0.354,0.585,0.550,�k,6.8,�L
2022/08/28,07:00,0.599,0.824,0.535,0.998,0.717,0.354,0.584,0.549,�k,6.2,�L
2022/08/28,07:10,0.594,0.818,0.534,0.992,0.711,0.352,0.583,0.548,�k�k��,6.4,�L
2022/08/28,07:20,0.592,0.816,0.533,0.991,0.711,0.352,0.580,0.547,�k�k��,10.3,�L
2022/08/28,07:30,0.593,0.821,0.533,0.993,0.711,0.352,0.582,0.548,�k�k��,7.1,�L
2022/08/28,07:40,0.593,0.821,0.533,0.995,0.714,0.351,0.582,0.549,�k,5.7,�L
2022/08/28,07:50,0.592,0.819,0.533,0.993,0.711,0.350,0.581,0.548,�k�k��,5.2,�L
2022/08/28,08:00,0.592,0.818,0.533,0.994,0.708,0.347,0.582,0.548,�k,6.8,�L
2022/08/28,08:10,0.591,0.816,0.530,0.993,0.709,0.347,0.580,0.548,�k�k��,6.0,�L
2022/08/28,08:20,0.590,0.817,0.526,0.993,0.710,0.347,0.581,0.546,�k�k��,6.8,�L
2022/08/28,08:30,0.586,0.817,0.525,0.993,0.708,0.345,0.580,0.550,�k�k��,6.4,�L
2022/08/28,08:40,0.587,0.815,0.525,0.995,0.705,0.343,0.579,0.549,�k,5.5,�L
2022/08/28,08:50,0.585,0.814,0.525,0.993,0.705,0.341,0.579,0.546,�k�k��,4.6,�L
2022/08/28,09:00,0.583,0.812,0.522,0.992,0.704,0.341,0.578,0.547,�k,5.2,�L
2022/08/28,09:10,0.583,0.813,0.523,0.993,0.702,0.341,0.578,0.546,�k�k��,5.2,�L
2022/08/28,09:20,0.583,0.810,0.522,0.993,0.702,0.339,0.578,0.545,�k,5.4,�L
2022/08/28,09:30,0.582,0.807,0.521,0.986,0.700,0.341,0.577,0.545,�k,6.3,�L
2022/08/28,09:40,0.582,0.810,0.522,0.988,0.701,0.342,0.578,0.544,�k�k��,4.5,�L
2022/08/28,09:50,0.583,0.812,0.524,0.989,0.702,0.341,0.578,0.546,�k�k��,2.9,�L
2022/08/28,10:00,0.583,0.808,0.520,0.988,0.701,0.340,0.577,0.545,�k,4.2,�L
2022/08/28,10:10,0.584,0.811,0.523,0.988,0.699,0.341,0.576,0.546,�k�k��,4.2,�L
2022/08/28,10:20,0.585,0.810,0.523,0.990,0.699,0.340,0.577,0.546,�k,3.9,�L
2022/08/28,10:30,0.586,0.809,0.524,0.989,0.699,0.340,0.576,0.546,�k�k��,4.1,�L
2022/08/28,10:40,0.585,0.811,0.522,0.989,0.700,0.339,0.578,0.546,�k��,7.2,�L
2022/08/28,10:50,0.583,0.810,0.521,0.988,0.700,0.337,0.578,0.544,�k�k��,6.3,�L
2022/08/28,11:00,0.581,0.810,0.519,0.988,0.698,0.338,0.576,0.545,�k,3.8,�L
2022/08/28,11:10,0.580,0.809,0.519,0.991,0.697,0.336,0.575,0.546,�k�k��,3.8,�L
2022/08/28,11:20,0.580,0.810,0.519,0.991,0.699,0.336,0.577,0.546,�k�k��,3.8,�L
2022/08/28,11:30,0.581,0.810,0.520,0.990,0.699,0.337,0.577,0.545,�k�k��,3.6,�L
2022/08/28,11:40,0.580,0.808,0.519,0.990,0.699,0.337,0.577,0.545,�k�k��,3.7,�L
2022/08/28,11:50,0.579,0.809,0.518,0.990,0.698,0.338,0.577,0.545,�k�k��,4.0,�L
2022/08/28,12:00,0.579,0.806,0.521,0.989,0.697,0.337,0.576,0.543,�k�k��,4.2,�L
2022/08/28,12:10,0.579,0.805,0.519,0.988,0.696,0.337,0.577,0.543,�k,4.5,�L
2022/08/28,12:20,0.579,0.806,0.520,0.986,0.696,0.337,0.575,0.543,�k�k��,5.2,�L
2022/08/28,12:30,0.579,0.808,0.519,0.984,0.697,0.336,0.577,0.544,�k�k��,4.3,�L
2022/08/28,12:40,0.579,0.804,0.517,0.987,0.697,0.337,0.576,0.544,�k�k��,3.5,�L
2022/08/28,12:50,0.579,0.805,0.517,0.985,0.696,0.337,0.576,0.544,�k�k��,2.9,�L
2022/08/28,13:00,0.580,0.807,0.519,0.989,0.699,0.336,0.576,0.544,�k�k��,3.2,�L
2022/08/28,13:10,0.578,0.807,0.519,0.987,0.696,0.337,0.575,0.542,�k,3.1,�L
2022/08/28,13:20,0.578,0.806,0.516,0.988,0.699,0.335,0.576,0.543,�k�k��,3.9,�L
2022/08/28,13:30,0.576,0.807,0.517,0.986,0.699,0.334,0.576,0.543,�k��,3.4,�L
2022/08/28,13:40,0.581,0.806,0.518,0.989,0.696,0.337,0.576,0.543,�k,3.1,�L
2022/08/28,13:50,0.578,0.805,0.517,0.987,0.697,0.336,0.577,0.543,�k,3.3,�L
2022/08/28,14:00,0.579,0.807,0.517,0.989,0.697,0.336,0.576,0.543,�k,3.1,�L
2022/08/28,14:10,0.578,0.805,0.518,0.989,0.697,0.336,0.576,0.544,�k,2.0,�L
2022/08/28,14:20,0.578,0.806,0.517,0.989,0.699,0.336,0.576,0.543,�k,3.8,�L
2022/08/28,14:30,0.579,0.805,0.517,0.990,0.699,0.336,0.575,0.544,�k,2.9,�L
2022/08/28,14:40,0.581,0.807,0.520,0.989,0.698,0.337,0.576,0.544,�k,3.2,�L
2022/08/28,14:50,0.580,0.807,0.520,0.986,0.697,0.338,0.575,0.543,�k,2.8,�L
2022/08/28,15:00,0.580,0.808,0.518,0.987,0.700,0.336,0.577,0.543,�k,2.9,�L
2022/08/28,15:10,0.580,0.807,0.519,0.987,0.699,0.336,0.576,0.545,�k�k��,3.1,��
2022/08/28,15:20,0.578,0.806,0.519,0.989,0.697,0.335,0.576,0.543,�k,2.9,��
2022/08/28,15:30,0.577,0.806,0.515,0.989,0.698,0.335,0.577,0.542,�k,2.0,��
2022/08/28,15:40,0.575,0.806,0.517,0.986,0.696,0.335,0.575,0.545,�k,2.5,��
2022/08/28,15:50,0.575,0.806,0.516,0.986,0.696,0.334,0.575,0.544,�k�k��,2.0,�L
2022/08/28,16:00,0.575,0.808,0.516,0.988,0.697,0.333,0.576,0.544,�k,2.3,�L
2022/08/28,16:10,0.574,0.805,0.516,0.987,0.697,0.332,0.576,0.543,�k,2.2,��
2022/08/28,16:20,0.575,0.807,0.514,0.988,0.696,0.332,0.575,0.543,�k,2.2,��
2022/08/28,16:30,0.572,0.806,0.515,0.990,0.696,0.331,0.576,0.543,�k�k��,1.7,�L
2022/08/28,16:40,0.574,0.806,0.514,0.991,0.696,0.330,0.576,0.543,�k��,4.2,�L
2022/08/28,16:50,0.573,0.806,0.513,0.989,0.697,0.331,0.575,0.544,�k��,5.0,�L
2022/08/28,17:00,0.572,0.804,0.512,0.990,0.697,0.331,0.575,0.543,�k��,4.0,�L
2022/08/28,17:10,0.574,0.804,0.511,0.988,0.697,0.332,0.576,0.543,�k�k��,3.6,�L
2022/08/28,17:20,0.572,0.804,0.511,0.987,0.698,0.332,0.576,0.544,�k��,3.9,��
2022/08/28,17:30,0.573,0.805,0.512,0.990,0.697,0.331,0.575,0.543,�k��,4.1,��
2022/08/28,17:40,0.574,0.806,0.511,0.989,0.698,0.331,0.575,0.544,�k��,3.7,��
2022/08/28,17:50,0.574,0.807,0.512,0.989,0.699,0.331,0.577,0.542,�k��,3.3,��
2022/08/28,18:00,0.575,0.807,0.512,0.987,0.698,0.331,0.577,0.545,�k��,3.4,��
2022/08/28,18:10,0.573,0.806,0.512,0.989,0.698,0.331,0.576,0.545,�k�k��,2.9,��
2022/08/28,18:20,0.574,0.807,0.514,0.991,0.698,0.331,0.576,0.543,�k��,2.2,��
2022/08/28,18:30,0.573,0.806,0.515,0.990,0.700,0.330,0.576,0.543,�k��,2.0,��
2022/08/28,18:40,0.573,0.809,0.514,0.990,0.701,0.331,0.577,0.543,�k��,2.5,��
2022/08/28,18:50,0.574,0.809,0.515,0.991,0.700,0.332,0.576,0.544,�k,1.7,��
2022/08/28,19:00,0.574,0.809,0.515,0.989,0.701,0.331,0.575,0.544,�k�k��,0.9,��
2022/08/28,19:10,0.576,0.809,0.515,0.992,0.701,0.332,0.578,0.544,�k�k��,1.2,��
2022/08/28,19:20,0.574,0.811,0.513,0.990,0.699,0.331,0.577,0.543,�k�k��,1.4,��
2022/08/28,19:30,0.575,0.812,0.516,0.989,0.702,0.332,0.578,0.545,�k,1.1,��
2022/08/28,19:40,0.575,0.812,0.516,0.990,0.702,0.332,0.578,0.545,�k�k��,0.6,��
2022/08/28,19:50,0.576,0.812,0.516,0.991,0.703,0.333,0.578,0.545,�k,1.2,��
2022/08/28,20:00,0.577,0.811,0.515,0.990,0.704,0.334,0.577,0.545,�k,1.2,��
2022/08/28,20:10,0.575,0.812,0.513,0.990,0.702,0.333,0.578,0.545,�k�k��,1.2,��
2022/08/28,20:20,0.576,0.811,0.515,0.991,0.702,0.332,0.577,0.546,�k,0.9,��
2022/08/28,20:30,0.577,0.813,0.515,0.993,0.703,0.332,0.577,0.546,�k�k��,1.2,��
2022/08/28,20:40,0.577,0.812,0.516,0.991,0.703,0.331,0.578,0.547,�k�k��,1.4,��
2022/08/28,20:50,0.577,0.810,0.515,0.992,0.702,0.334,0.580,0.546,�k�k��,1.4,��
2022/08/28,21:00,0.577,0.811,0.516,0.993,0.703,0.331,0.578,0.545,�k�k��,2.3,��
2022/08/28,21:10,0.575,0.812,0.516,0.991,0.702,0.334,0.579,0.545,�k�k��,1.7,��
2022/08/28,21:20,0.577,0.812,0.516,0.991,0.704,0.333,0.579,0.545,�k,1.5,��
2022/08/28,21:30,0.576,0.810,0.516,0.990,0.703,0.333,0.578,0.546,-,CALM,��
2022/08/28,21:40,0.575,0.811,0.515,0.992,0.704,0.332,0.579,0.546,�k,1.5,��
2022/08/28,21:50,0.575,0.810,0.514,0.992,0.705,0.334,0.579,0.547,�k�k��,1.7,��
2022/08/28,22:00,0.576,0.810,0.516,0.994,0.704,0.334,0.580,0.546,�k�k��,2.3,��
2022/08/28,22:10,0.577,0.813,0.517,0.993,0.704,0.333,0.579,0.546,�k�k��,2.2,��
2022/08/28,22:20,0.577,0.813,0.514,0.992,0.704,0.334,0.578,0.546,�k�k��,1.5,��
2022/08/28,22:30,0.576,0.813,0.516,0.992,0.703,0.334,0.579,0.545,�k�k��,1.7,��
2022/08/28,22:40,0.576,0.810,0.515,0.992,0.704,0.333,0.580,0.547,�k��,1.7,��
2022/08/28,22:50,0.577,0.812,0.517,0.993,0.706,0.332,0.581,0.547,�k�k��,1.7,��
2022/08/28,23:00,0.576,0.813,0.514,0.994,0.706,0.333,0.579,0.546,���k��,1.2,��
2022/08/28,23:10,0.577,0.811,0.516,0.993,0.705,0.334,0.580,0.546,�k��,2.5,��
2022/08/28,23:20,0.575,0.812,0.517,0.993,0.704,0.335,0.580,0.546,�k��,2.6,��
2022/08/28,23:30,0.576,0.812,0.515,0.993,0.705,0.336,0.580,0.546,�k��,3.8,��
2022/08/28,23:40,0.577,0.812,0.517,0.995,0.706,0.334,0.578,0.546,�k��,3.3,��
2022/08/28,23:50,0.575,0.813,0.515,0.994,0.703,0.333,0.579,0.546,�k�k��,2.3,��
